Ottumwa, IA

8:23 PM CST on January 17, 2017 (GMT -0600)
Ottumwa Industrial

Weather History for KOTM - August, 2013

Change the Weather History Date:

Tuesday, August 20, 2013

  Actual Average Record
Temperature  
Mean Temperature 75 °F 73 °F  
Max Temperature 87 °F 83 °F 103 °F (1947)
Min Temperature 63 °F 62 °F 41 °F (1950)
Degree Days  
Heating Degree Days 0 0  
Month to date heating degree days 6 0  
Since 1 June heating degree days 42 23  
Since 1 July heating degree days 16 2  
Cooling Degree Days 10 8  
Month to date cooling degree days 104 177  
Year to date cooling degree days 645 756  
Since 1 June cooling degree days 568 692  
Growing Degree Days 25 (Base 50)    
Moisture  
Dew Point 64 °F    
Average Humidity 70    
Maximum Humidity 90    
Minimum Humidity 50    
Precipitation  
Precipitation 0.00 in 0.15 in 4.54 in (2010)
Month to date precipitation 0.96 2.99  
Year to date precipitation 28.54 25.08  
Sea Level Pressure  
Sea Level Pressure 30.01 in    
Wind  
Wind Speed 9 mph (South)    
Max Wind Speed 16 mph    
Max Gust Speed 24 mph    
Visibility 10 miles    
Events      
T = Trace of Precipitation, MM = Missing Value Source: NWS Daily Summary

Daily Weather History Graph

Daily Weather History Graph

Search for Another Location

Airport or City:

Trip Planner

Search our weather history database for the weather conditions in past years. The results will help you decide how hot, cold, wet, or windy it might be!

Date:

Astronomy

Aug. 20, 2013 Rise Set
Actual Time 6:24 AM CDT 8:00 PM CDT
Civil Twilight 5:55 AM CDT 8:29 PM CDT
Nautical Twilight 5:20 AM CDT 9:04 PM CDT
Astronomical Twilight 4:42 AM CDT 9:42 PM CDT
Moon 7:32 PM CDT (8/20) 5:55 AM CDT (8/20)
Length of Visible Light 14h 34m
Length of Day
13h 36m
Full, 100% of the Moon is Illuminated
Aug 20
Full
Aug 20
Full
Aug 28
Last Quarter
Sep 5
New
Sep 12
First Quarter

Hourly Weather History & Observations

Time (CDT) Temp. Heat Index Dew Point Humidity Pressure Visibility Wind Dir Wind Speed Gust Speed Precip Events Conditions
12:53 AM 64.9 °F - 60.1 °F 84% 30.01 in 10.0 mi South 5.8 mph - N/A   Clear
1:53 AM 64.0 °F - 59.0 °F 84% 30.01 in 10.0 mi South 5.8 mph - N/A   Clear
2:53 AM 63.0 °F - 59.0 °F 87% 30.00 in 10.0 mi South 6.9 mph - N/A   Clear
3:53 AM 64.9 °F - 61.0 °F 87% 30.01 in 10.0 mi South 6.9 mph - N/A   Scattered Clouds
4:53 AM 64.0 °F - 61.0 °F 90% 30.01 in 9.0 mi South 6.9 mph - N/A   Clear
5:53 AM 64.9 °F - 61.0 °F 87% 30.02 in 9.0 mi South 5.8 mph - N/A   Mostly Cloudy
6:53 AM 66.0 °F - 61.0 °F 84% 30.04 in 9.0 mi South 8.1 mph - N/A   Mostly Cloudy
7:53 AM 68.0 °F - 62.1 °F 81% 30.04 in 10.0 mi South 8.1 mph - N/A   Clear
8:53 AM 71.1 °F - 63.0 °F 75% 30.04 in 10.0 mi South 8.1 mph - N/A   Clear
9:53 AM 75.0 °F - 64.9 °F 71% 30.04 in 10.0 mi South 9.2 mph - N/A   Mostly Cloudy
10:53 AM 79.0 °F - 66.0 °F 64% 30.05 in 10.0 mi SSW 11.5 mph - N/A   Clear
11:53 AM 82.0 °F 84.1 °F 66.0 °F 58% 30.04 in 10.0 mi SSW 12.7 mph 18.4 mph N/A   Clear
12:53 PM 84.0 °F 86.3 °F 66.0 °F 55% 30.01 in 10.0 mi SW 11.5 mph - N/A   Clear
1:53 PM 84.9 °F 87.6 °F 66.9 °F 55% 29.99 in 10.0 mi SSW 9.2 mph - N/A   Clear
2:53 PM 84.9 °F 87.1 °F 66.0 °F 53% 30.00 in 10.0 mi South 9.2 mph - N/A   Scattered Clouds
3:53 PM 87.1 °F 89.2 °F 66.0 °F 49% 29.98 in 10.0 mi SSW 13.8 mph - N/A   Partly Cloudy
4:53 PM 86.0 °F 88.2 °F 66.0 °F 51% 29.97 in 10.0 mi South 8.1 mph - N/A   Mostly Cloudy
5:53 PM 84.9 °F 86.6 °F 64.9 °F 51% 29.97 in 10.0 mi South 10.4 mph - N/A   Mostly Cloudy
6:53 PM 82.0 °F 84.1 °F 66.0 °F 58% 29.96 in 10.0 mi South 8.1 mph - N/A   Scattered Clouds
7:53 PM 79.0 °F - 64.9 °F 62% 29.96 in 10.0 mi South 8.1 mph - N/A   Partly Cloudy
8:53 PM 77.0 °F - 64.0 °F 64% 29.98 in 10.0 mi South 8.1 mph - N/A   Partly Cloudy
9:53 PM 75.0 °F - 64.0 °F 69% 30.00 in 10.0 mi South 8.1 mph - N/A   Clear
10:53 PM 73.9 °F - 64.0 °F 71% 30.00 in 10.0 mi South 8.1 mph - N/A   Partly Cloudy
11:53 PM 73.0 °F - 63.0 °F 71% 30.00 in 10.0 mi South 9.2 mph - N/A   Clear